Weather History for Uzhgorod, Ukraine

Change the Weather History Date:

Saturday, March 8, 2014

  Actual Average Record
Temperature  
Mean Temperature 46 °F -  
Max Temperature 60 °F - - ()
Min Temperature 32 °F - - ()
Degree Days  
Heating Degree Days 19    
Moisture  
Dew Point 35 °F    
Average Humidity 69    
Maximum Humidity 93    
Minimum Humidity 42    
Precipitation  
Precipitation 0.00 in - - ()
Sea Level Pressure  
Sea Level Pressure 30.35 in    
Wind  
Wind Speed 5 mph ()    
Max Wind Speed 18 mph    
Max Gust Speed 25 mph    
Visibility 5.9 miles    
Events      
T = Trace of Precipitation, MM = Missing Value Source: Averaged Metar Reports

Daily Weather History Graph

Daily Weather History Graph

Search for Another Location

Airport:

Trip Planner

Search our weather history database for the weather conditions in past years. The results will help you decide how hot, cold, wet, or windy it might be!

Date:

Astronomy

Mar. 08, 2014 Rise Set
Actual Time 6:59 AM EET 6:25 PM EET
Civil Twilight 6:27 AM EET 6:56 PM EET
Nautical Twilight 5:51 AM EET 7:32 PM EET
Astronomical Twilight 5:14 AM EET 8:09 PM EET
Moon 10:54 AM EET (3/8) 1:37 AM EET (3/8)
Length of Visible Light 12h 28m
Length of Day
11h 26m
Waxing Crescent, 49% of the Moon is Illuminated
Mar 8
Waxing Crescent
Mar 8
First Quarter
Mar 16
Full
Mar 24
Last Quarter
Mar 30
New

Hourly Weather History & Observations

Time (EET) Temp. Windchill Dew Point Humidity Pressure Visibility Wind Dir Wind Speed Gust Speed Precip Events Conditions
5:00 AM 33.8 °F - 32.0 °F 93% 30.30 in 6.2 mi Calm Calm - N/A   Mostly Cloudy
6:00 AM 32.0 °F - 30.2 °F 93% 30.30 in 5.0 mi NW 2.2 mph - N/A   Mostly Cloudy
7:00 AM 32.0 °F - 30.2 °F 93% 30.33 in 3.1 mi Calm Calm - N/A   Mostly Cloudy
7:30 AM 32.0 °F - 30.2 °F 93% 30.33 in 3.7 mi WNW 2.2 mph - N/A   Mostly Cloudy
8:00 AM 33.8 °F - 32.0 °F 93% 30.33 in 5.0 mi NNW 2.2 mph - N/A   Clear
8:30 AM 33.8 °F 29.7 °F 32.0 °F 93% 30.36 in 6.2 mi NW 4.5 mph - N/A   Clear
9:00 AM 39.2 °F - 35.6 °F 87% 30.36 in 6.2 mi WNW 2.2 mph - N/A   Clear
9:30 AM 39.2 °F - 35.6 °F 87% 30.36 in 6.2 mi Calm Calm - N/A   Clear
10:00 AM 44.6 °F 40.8 °F 35.6 °F 71% 30.36 in 6.2 mi WNW 6.7 mph - N/A   Clear
10:30 AM 44.6 °F 42.3 °F 35.6 °F 71% 30.36 in 6.2 mi NNW 4.5 mph - N/A   Clear
11:00 AM 48.2 °F - 37.4 °F 66% 30.33 in 6.2 mi WNW 4.5 mph - N/A   Clear
11:30 AM 48.2 °F - 37.4 °F 66% 30.33 in 6.2 mi NNW 4.5 mph - N/A   Clear
12:00 PM 51.8 °F - 37.4 °F 58% 30.36 in 6.2 mi WNW 6.7 mph - N/A   Clear
12:30 PM 51.8 °F - 37.4 °F 58% 30.36 in 6.2 mi WNW 8.9 mph - N/A   Clear
1:00 PM 55.4 °F - 39.2 °F 54% 30.33 in 6.2 mi NW 11.2 mph - N/A   Clear
1:30 PM 55.4 °F - 39.2 °F 54% 30.33 in 6.2 mi NW 8.9 mph - N/A   Clear
2:00 PM 59.0 °F - 37.4 °F 45% 30.33 in 6.2 mi WNW 13.4 mph - N/A   Clear
2:30 PM 59.0 °F - 37.4 °F 45% 30.33 in 6.2 mi WNW 13.4 mph 24.6 mph N/A   Clear
3:00 PM 60.8 °F - 37.4 °F 42% 30.33 in 6.2 mi NNW 15.7 mph - N/A   Clear
3:30 PM 60.8 °F - 37.4 °F 42% 30.33 in 6.2 mi NW 15.7 mph - N/A   Clear
4:00 PM 59.0 °F - 37.4 °F 45% 30.33 in 6.2 mi NW 17.9 mph - N/A   Clear
5:00 PM 53.6 °F - 33.8 °F 47% 30.33 in 6.2 mi NNW 13.4 mph - N/A   Clear
6:00 PM 50.0 °F - 37.4 °F 62% 30.36 in 6.2 mi WNW 13.4 mph - N/A   Clear
7:00 PM 48.2 °F - 37.4 °F 66% 30.39 in 6.2 mi NNW 11.2 mph - N/A   Partly Cloudy
8:00 PM 42.8 °F 38.7 °F 33.8 °F 70% 30.39 in 6.2 mi North 6.7 mph - N/A   Clear
9:00 PM 42.8 °F 38.7 °F 35.6 °F 76% 30.42 in 6.2 mi NNW 6.7 mph - N/A   Clear
10:00 PM 41.0 °F 36.5 °F 35.6 °F 81% 30.45 in 6.2 mi NNW 6.7 mph - N/A   Partly Cloudy